[[{"header":{"parameterUnit":"m.s-1","parameterCategory":1,"la1":30.2991,"la2":30.254,"lo1":-89.0895,"lo2":-89.0444,"dy":0.0017,"dx":0.0017,"nx":28,"ny":28,"refTime":"2024-07-03T21:00:00:Z","depth":0,"parameterNumber":2,"parameterNumberName":"U-component_of_WINDS"},"data":[0,0,0,0,0,0,0,0,0,0,0,0,0,0,0,0,0,0,0,0,0,0,0,0,0,0,0,0,0,0,0,0,0,0,0,0,0,0,0,0,0,0,0,0,0,0,0,0,0,0,0,0,0,0,0,0,0,0,0.4968,0.497,0,0.5114,0.5116,0.5118,0.519,0.519,0.519,0.519,0.5342,0.5346,0.535,0,0,0,0,0,0,0,0,0,0,0,0,0,0.4754,0.4757,0.4968,0.497,0.4972,0.5114,0.5116,0.5118,0.519,0.519,0.519,0.519,0.5341,0.5345,0.535,0,0,0,0,0,0,0,0,0,0,0,0,0,0.4868,0.4758,0.4968,0.5025,0.5032,0.5114,0.5116,0.5119,0.519,0.519,0.519,0.5191,0.5339,0.5345,0.5351,0.5388,0,0,0.5369,0.5372,0,0,0,0,0,0,0,0,0.4861,0.4876,0.5015,0.5021,0.5029,0.5134,0.5096,0.5209,0.519,0.513,0.519,0.5191,0.5273,0.5284,0.5312,0.5395,0.5401,0.537,0.5373,0.5376,0.5378,0,0,0,0,0,0,0,0.4853,0.487,0.5026,0.5017,0.5025,0.5044,0.506,0.5118,0.52,0.5135,0.5141,0.5157,0.5277,0.5306,0.5316,0.5403,0.537,0.5375,0.5379,0.5381,0.5525,0.5525,0,0,0,0,0,0,0.4836,0.4863,0.5021,0.503,0.4943,0.5048,0.5066,0.51,0.5199,0.5214,0.5157,0.516,0.5295,0.5309,0.5321,0.5372,0.5376,0.5382,0.5385,0.5525,0.5525,0.5525,0,0,0,0,0,0,0.4831,0.4849,0.5016,0.4948,0.4971,0.5051,0.5089,0.5103,0.5132,0.5216,0.5231,0.5172,0.5296,0.5313,0.5371,0.5378,0.5384,0.539,0.5524,0.5525,0.5525,0.5472,0,0,0,0,0,0,0.4824,0.4847,0.4861,0.4948,0.4974,0.5061,0.509,0.5106,0.5142,0.5148,0.5233,0.5247,0.5297,0.5361,0.5377,0.5386,0.5395,0.5524,0.5524,0.5525,0.5473,0.547,0.5468,0,0,0,0,0,0.4817,0.4841,0.4862,0.4881,0.4994,0.5062,0.5077,0.5133,0.5143,0.5158,0.5212,0.5245,0.5374,0.5367,0.5384,0.5396,0.5524,0.5524,0.5525,0.5475,0.5471,0.5468,0,0,0,0,0,0,0.4754,0.4853,0.4878,0.493,0.4987,0.5074,0.5095,0.5127,0.5183,0.5186,0.5254,0.5272,0.5324,0.5366,0.5355,0.5437,0.5452,0.5456,0.5408,0.5405,0.5402,0.5392,0.54,0,0,0,0,0,0.4746,0.4792,0.4877,0.4916,0.4943,0.5014,0.5046,0.5084,0.5146,0.517,0.5228,0.5287,0.5341,0.5376,0.543,0.5479,0.55,0.5496,0.5493,0.5491,0.5494,0.5524,0.5523,0.5526,0.5526,0.5526,0,0,0.473,0.479,0.4816,0.4904,0.4953,0.5,0.5033,0.5082,0.5118,0.5178,0.5236,0.528,0.5351,0.5404,0.5431,0.5441,0.5497,0.5491,0.5488,0.5493,0.5524,0.5524,0.5523,0.5527,0.5527,0.5527,0,0,0.4726,0.4776,0.4814,0.4862,0.4935,0.4982,0.4991,0.5073,0.5105,0.5164,0.521,0.5254,0.5345,0.5394,0.543,0.5445,0.5478,0.5461,0.5446,0.5475,0.5474,0.5474,0.548,0.5481,0.5463,0.5463,0.5463,0,0.4698,0.4771,0.483,0.4876,0.4914,0.4969,0.5009,0.5052,0.5139,0.5164,0.5174,0.529,0.5342,0.5408,0.5411,0.5439,0.5452,0.5451,0.5469,0.547,0.5471,0.5478,0.5479,0.546,0.5461,0.5461,0.5461,0,0.4733,0.4782,0.4804,0.4886,0.4927,0.4969,0.5035,0.5069,0.5104,0.515,0.521,0.5273,0.5342,0.536,0.5395,0.5432,0.5436,0.5456,0.5473,0.5467,0.5475,0.5477,0.5457,0.5458,0.5458,0.5459,0,0,0.4693,0.4808,0.4815,0.4853,0.4937,0.4977,0.5022,0.5089,0.5117,0.5175,0.5215,0.5291,0.5311,0.5352,0.5393,0.5418,0.5426,0.5436,0.5439,0.5432,0.5471,0.5455,0.5457,0.5448,0.5448,0.5449,0.5465,0,0.4702,0.4785,0.4839,0.4901,0.4948,0.5002,0.5042,0.5098,0.5142,0.5189,0.5238,0.5291,0.5313,0.5339,0.5366,0.5419,0.5435,0.5419,0.5486,0.5488,0.5468,0.5461,0.5444,0.5456,0.5468,0.5469,0.5469,0,0.4723,0.4779,0.4845,0.4925,0.4947,0.4981,0.5047,0.5091,0.5156,0.5187,0.5232,0.5274,0.5324,0.5336,0.5407,0.5395,0.5426,0.5456,0.5458,0.5467,0.5479,0.547,0.5462,0.5463,0.5474,0.5474,0.5473,0,0.4688,0.478,0.4832,0.4863,0.4957,0.4981,0.5021,0.5086,0.5123,0.518,0.5205,0.5267,0.5301,0.5349,0.5406,0.5409,0.5472,0.5488,0.5499,0.5498,0.551,0.5509,0.5507,0.5529,0.5529,0.5529,0.5529,0,0.4692,0.4731,0.4818,0.485,0.4895,0.4958,0.5001,0.5046,0.5103,0.5145,0.5195,0.5234,0.5307,0.5354,0.5399,0.5451,0.5466,0.5493,0.5505,0.5489,0.5486,0.5511,0.5511,0.5529,0.5529,0.5529,0.5529,0,0.4661,0.4721,0.4781,0.4866,0.4888,0.4917,0.499,0.5023,0.507,0.5122,0.5138,0.5212,0.5271,0.5332,0.5412,0.5442,0.5493,0.5509,0.5471,0.5477,0.5485,0.5484,0.55,0.5506,0.5522,0.5522,0.5522,0,0.466,0.4691,0.4779,0.481,0.4849,0.4899,0.4937,0.5,0.5037,0.5114,0.5138,0.52,0.5253,0.5344,0.5405,0.5467,0.5485,0.5486,0.5494,0.5478,0.5486,0.5483,0.5487,0.5484,0.5483,0.5483,0.5482,0,0.4652,0.468,0.4732,0.4795,0.4838,0.4891,0.4945,0.4968,0.5042,0.5081,0.5141,0.5182,0.5264,0.5325,0.5393,0.5436,0.5471,0.5479,0.5485,0.547,0.5446,0.546,0.5464,0.5479,0.5479,0.5479,0.548,0.548,0.4636,0.4666,0.4733,0.479,0.4837,0.4887,0.4922,0.4974,0.5025,0.5096,0.513,0.519,0.5255,0.5351,0.5392,0.5441,0.5451,0.546,0.5462,0.5463,0.5459,0.5438,0.5453,0.5454,0.5454,0.5454,0.5454,0,0.4631,0.4676,0.4728,0.4802,0.4847,0.4876,0.4938,0.4974,0.5026,0.5083,0.5135,0.5204,0.5264,0.5329,0.5393,0.542,0.5438,0.5434,0.5433,0.5442,0.5446,0.5435,0.5419,0.5419,0.5419,0.5419,0.5419,0.5419,0.4633,0.4686,0.4723,0.48,0.4845,0.4905,0.4938,0.4984,0.503,0.5105,0.5155,0.5198,0.5259,0.5327,0.5384,0.5401,0.5423,0.5415,0.5437,0.5439,0.5442,0.5445,0.5435,0.5419,0.5419,0.543,0.543,0.543]},{"header":{"parameterUnit":"m.s-1","parameterCategory":1,"la1":30.2991,"la2":30.254,"lo1":-89.0895,"lo2":-89.0444,"dy":0.0017,"dx":0.0017,"nx":28,"ny":28,"refTime":"2024-07-03T21:00:00:Z","depth":0,"parameterNumber":3,"parameterNumberName":"V-component_of_WINDS"},"data":[0,0,0,0,0,0,0,0,0,0,0,0,0,0,0,0,0,0,0,0,0,0,0,0,0,0,0,0,0,0,0,0,0,0,0,0,0,0,0,0,0,0,0,0,0,0,0,0,0,0,0,0,0,0,0,0,0,0,4.8154,4.8154,0,4.8137,4.8136,4.8136,4.8105,4.8105,4.8104,4.8104,4.8087,4.8087,4.8087,0,0,0,0,0,0,0,0,0,0,0,0,0,4.8161,4.8161,4.8154,4.8154,4.8153,4.8137,4.8136,4.8136,4.8105,4.8105,4.8104,4.8103,4.8087,4.8087,4.8087,0,0,0,0,0,0,0,0,0,0,0,0,0,4.8152,4.8161,4.8154,4.8136,4.8134,4.8137,4.8136,4.8136,4.8106,4.8105,4.8104,4.8103,4.8087,4.8087,4.8087,4.8106,0,0,4.8087,4.8087,0,0,0,0,0,0,0,0,4.8153,4.8152,4.8139,4.8137,4.8135,4.8122,4.8133,4.8126,4.8106,4.8116,4.8103,4.8102,4.8099,4.8098,4.8097,4.8105,4.8104,4.8087,4.8087,4.8087,4.8088,0,0,0,0,0,0,0,4.8153,4.8153,4.8147,4.8139,4.8136,4.8129,4.8127,4.8131,4.8113,4.8115,4.8113,4.8111,4.8098,4.8097,4.8096,4.8104,4.8087,4.8087,4.8088,4.8088,4.8126,4.8127,0,0,0,0,0,0,4.8157,4.8153,4.8148,4.8147,4.8142,4.813,4.8127,4.8127,4.8113,4.811,4.8112,4.811,4.8097,4.8096,4.8096,4.8116,4.8087,4.8088,4.8088,4.8125,4.8127,4.8128,0,0,0,0,0,0,4.8157,4.8156,4.8148,4.8149,4.8148,4.8131,4.8131,4.8127,4.8126,4.811,4.8107,4.8114,4.8096,4.8095,4.8103,4.8115,4.8088,4.8088,4.8124,4.8126,4.8127,4.8158,0,0,0,0,0,0,4.8157,4.8157,4.8163,4.815,4.8148,4.8156,4.8132,4.8128,4.8126,4.8123,4.8112,4.8109,4.8096,4.8103,4.8103,4.8115,4.8088,4.8123,4.8125,4.8127,4.8156,4.8161,4.8165,0,0,0,0,0,4.8158,4.8173,4.8164,4.8163,4.8156,4.8157,4.8156,4.814,4.8128,4.8134,4.8124,4.8109,4.8114,4.8104,4.8104,4.8116,4.8122,4.8124,4.8126,4.8154,4.816,4.8164,0,0,0,0,0,0,4.8188,4.8171,4.816,4.8172,4.8166,4.8151,4.8159,4.8146,4.8144,4.8141,4.8122,4.812,4.813,4.8124,4.8113,4.8134,4.8116,4.8118,4.8137,4.8142,4.8146,4.8147,4.8088,0,0,0,0,0,4.8197,4.8199,4.8183,4.8195,4.8192,4.8177,4.8176,4.8165,4.8158,4.8156,4.8146,4.814,4.8141,4.8141,4.8141,4.8155,4.8152,4.8164,4.8168,4.8171,4.8173,4.8181,4.8186,4.8134,4.8134,4.8134,0,0,4.8213,4.8204,4.8206,4.8201,4.8195,4.8198,4.8175,4.8179,4.818,4.8156,4.8163,4.8156,4.8148,4.816,4.8164,4.8155,4.8187,4.8174,4.8177,4.8177,4.8183,4.8188,4.8193,4.8136,4.8136,4.8135,0,0,4.8245,4.8239,4.8247,4.8242,4.8233,4.8223,4.8225,4.8213,4.8207,4.8213,4.8195,4.8198,4.8199,4.8194,4.8192,4.8223,4.8209,4.8223,4.8245,4.8252,4.8256,4.826,4.827,4.8275,4.8225,4.8225,4.8225,0,4.8267,4.827,4.8254,4.8259,4.8257,4.8235,4.8244,4.824,4.8232,4.8231,4.8221,4.8221,4.8215,4.8225,4.8232,4.8231,4.8233,4.8224,4.8257,4.826,4.8263,4.8273,4.8277,4.8227,4.8227,4.8227,4.8227,0,4.8298,4.83,4.8308,4.8301,4.83,4.8307,4.8292,4.8293,4.8282,4.8273,4.828,4.8271,4.8268,4.827,4.8259,4.8279,4.8273,4.826,4.8242,4.827,4.8279,4.8283,4.823,4.8229,4.8228,4.8228,0,0,4.8347,4.8331,4.8334,4.8331,4.832,4.8322,4.8328,4.8325,4.8327,4.8322,4.8327,4.8329,4.8317,4.8314,4.8303,4.831,4.8334,4.8296,4.8295,4.8303,4.8355,4.8365,4.8369,4.8325,4.8326,4.8327,4.8356,0,4.8377,4.8386,4.8371,4.8384,4.8386,4.8366,4.8372,4.8366,4.8358,4.8359,4.835,4.8351,4.8335,4.8334,4.834,4.833,4.8345,4.8328,4.833,4.833,4.8332,4.8374,4.8384,4.8412,4.8359,4.836,4.836,0,4.8411,4.8408,4.8421,4.841,4.8411,4.8416,4.8412,4.8413,4.8407,4.84,4.8398,4.8385,4.839,4.8373,4.8381,4.837,4.837,4.8366,4.8366,4.8366,4.8347,4.8374,4.842,4.8425,4.8366,4.8365,4.8365,0,4.8446,4.8445,4.8453,4.8451,4.8438,4.8442,4.8437,4.8429,4.8429,4.8426,4.8425,4.8424,4.8422,4.8421,4.8408,4.8397,4.8417,4.8399,4.8412,4.8413,4.8417,4.8417,4.8464,4.8418,4.8418,4.8418,4.8418,0,4.8479,4.8488,4.8468,4.8473,4.8482,4.8466,4.8476,4.8469,4.8462,4.8465,4.8448,4.8452,4.8434,4.8436,4.8426,4.8434,4.8433,4.8429,4.8426,4.843,4.843,4.8429,4.8427,4.8419,4.8419,4.8418,4.8418,0,4.8519,4.8506,4.8513,4.8501,4.8498,4.8505,4.8495,4.8499,4.849,4.8494,4.8494,4.848,4.8481,4.8468,4.8467,4.846,4.8473,4.8467,4.8475,4.8473,4.8487,4.8485,4.8534,4.8539,4.8491,4.8491,4.8492,0,4.8541,4.8547,4.8536,4.8537,4.8532,4.8534,4.8533,4.8518,4.8518,4.8511,4.8516,4.8516,4.8515,4.8518,4.8508,4.8507,4.85,4.8517,4.85,4.8504,4.85,4.85,4.8501,4.8521,4.8521,4.8522,4.8522,0,4.8582,4.8575,4.8575,4.8572,4.8572,4.8569,4.8566,4.8567,4.8551,4.8552,4.8553,4.8552,4.8551,4.8551,4.8548,4.8543,4.853,4.8528,4.8531,4.8535,4.854,4.8537,4.8484,4.8527,4.8526,4.8526,4.8526,4.8526,4.8613,4.8617,4.861,4.861,4.8606,4.8603,4.8606,4.8598,4.8598,4.8596,4.8587,4.859,4.8583,4.8578,4.8575,4.8577,4.8569,4.8573,4.8574,4.8575,4.8578,4.854,4.8576,4.8576,4.8576,4.8576,4.8576,0,4.8652,4.8646,4.8647,4.8642,4.8643,4.8631,4.8626,4.8627,4.863,4.8625,4.8624,4.8626,4.8626,4.8616,4.8615,4.8619,4.8613,4.8619,4.8619,4.8618,4.8585,4.8583,4.8624,4.8624,4.8624,4.8624,4.8624,4.8624,4.8672,4.868,4.8672,4.8678,4.8672,4.8674,4.8673,4.867,4.8666,4.8669,4.8669,4.8662,4.8656,4.8654,4.8654,4.8651,4.8652,4.866,4.8655,4.8625,4.862,4.8616,4.8613,4.866,4.866,4.8687,4.8688,4.8688]}]]